TimeCST,TemperatureF,Dew PointF,Humidity,Sea Level PressureIn,VisibilityMPH,Wind Direction,Wind SpeedMPH,Gust SpeedMPH,PrecipitationIn,Events,Conditions,WindDirDegrees,DateUTC
12:15 AM,51.3,45.7,81,29.69,10.0,South,11.5,-,N/A,,Clear,170,2013-01-12 06:15:00
12:35 AM,50.9,45.5,82,29.69,10.0,South,12.7,16.1,N/A,,Clear,170,2013-01-12 06:35:00
12:55 AM,50.9,45.5,82,29.70,10.0,South,10.4,16.1,N/A,,Clear,170,2013-01-12 06:55:00
1:15 AM,50.7,45.5,82,29.70,10.0,South,9.2,-,N/A,,Clear,170,2013-01-12 07:15:00
1:35 AM,50.7,45.3,82,29.70,10.0,South,10.4,-,N/A,,Clear,170,2013-01-12 07:35:00
1:55 AM,50.5,45.5,83,29.71,10.0,South,11.5,-,N/A,,Clear,170,2013-01-12 07:55:00
2:15 AM,51.3,45.5,81,29.73,10.0,South,12.7,18.4,N/A,,Clear,180,2013-01-12 08:15:00
2:35 AM,51.1,45.3,81,29.73,10.0,South,12.7,19.6,N/A,,Clear,180,2013-01-12 08:35:00
2:55 AM,51.8,45.3,79,29.73,10.0,South,15.0,20.7,N/A,,Clear,180,2013-01-12 08:55:00
3:15 AM,51.1,45.0,80,29.73,10.0,South,11.5,-,N/A,,Clear,180,2013-01-12 09:15:00
3:35 AM,50.4,44.8,81,29.74,10.0,South,11.5,-,N/A,,Clear,180,2013-01-12 09:35:00
3:55 AM,49.3,44.2,83,29.74,10.0,South,9.2,-,N/A,,Clear,190,2013-01-12 09:55:00
4:15 AM,48.0,43.5,84,29.75,10.0,SSW,9.2,-,N/A,,Clear,200,2013-01-12 10:15:00
4:35 AM,50.0,44.1,80,29.76,10.0,SSW,12.7,-,N/A,,Clear,210,2013-01-12 10:35:00
4:55 AM,50.0,44.1,80,29.77,10.0,SW,10.4,-,N/A,,Clear,220,2013-01-12 10:55:00
5:15 AM,50.0,44.1,80,29.78,10.0,SW,11.5,-,N/A,,Clear,220,2013-01-12 11:15:00
5:35 AM,50.0,43.3,78,29.80,10.0,WSW,12.7,19.6,N/A,,Clear,250,2013-01-12 11:35:00
5:55 AM,45.1,38.3,77,29.82,10.0,West,17.3,25.3,N/A,,Clear,280,2013-01-12 11:55:00
6:15 AM,42.6,36.3,78,29.85,10.0,West,17.3,-,N/A,,Clear,280,2013-01-12 12:15:00
6:35 AM,40.3,35.6,83,29.86,10.0,West,12.7,18.4,N/A,,Clear,280,2013-01-12 12:35:00
6:55 AM,38.8,33.6,82,29.88,10.0,West,21.9,27.6,N/A,,Clear,270,2013-01-12 12:55:00
7:15 AM,37.4,32.5,83,29.90,10.0,West,16.1,-,N/A,,Clear,270,2013-01-12 13:15:00
7:35 AM,36.7,32.5,85,29.91,10.0,West,13.8,19.6,N/A,,Scattered Clouds,280,2013-01-12 13:35:00
7:55 AM,35.6,30.6,82,29.94,10.0,West,18.4,23.0,N/A,,Clear,270,2013-01-12 13:55:00
8:15 AM,34.9,30.6,84,29.94,10.0,West,10.4,-,N/A,,Clear,280,2013-01-12 14:15:00
8:35 AM,34.7,30.9,86,29.95,10.0,West,9.2,-,N/A,,Scattered Clouds,280,2013-01-12 14:35:00
8:55 AM,35.2,31.8,87,29.96,10.0,West,8.1,-,N/A,,Overcast,280,2013-01-12 14:55:00
9:15 AM,34.7,30.4,84,29.98,10.0,West,13.8,-,N/A,,Overcast,280,2013-01-12 15:15:00
9:35 AM,34.2,30.0,85,29.98,10.0,WNW,13.8,17.3,N/A,,Overcast,290,2013-01-12 15:35:00
9:55 AM,34.2,30.0,85,29.99,10.0,WNW,13.8,-,N/A,,Scattered Clouds,290,2013-01-12 15:55:00
10:15 AM,33.4,28.6,82,29.99,10.0,West,10.4,18.4,N/A,,Clear,280,2013-01-12 16:15:00
10:35 AM,34.7,28.9,79,29.99,10.0,West,11.5,-,N/A,,Scattered Clouds,280,2013-01-12 16:35:00
10:55 AM,35.4,29.5,79,30.00,10.0,West,12.7,-,N/A,,Scattered Clouds,280,2013-01-12 16:55:00
11:15 AM,34.5,29.1,81,30.01,10.0,West,9.2,-,N/A,,Mostly Cloudy,280,2013-01-12 17:15:00
11:35 AM,33.8,26.6,75,29.99,10.0,WNW,11.5,-,N/A,,Scattered Clouds,290,2013-01-12 17:35:00
11:55 AM,34.2,28.0,78,29.99,10.0,West,10.4,-,N/A,,Clear,280,2013-01-12 17:55:00
12:15 PM,34.0,28.4,80,29.97,10.0,WNW,15.0,-,N/A,,Clear,290,2013-01-12 18:15:00
12:35 PM,33.3,28.2,82,29.96,10.0,WNW,16.1,-,N/A,,Scattered Clouds,290,2013-01-12 18:35:00
12:55 PM,32.4,27.0,80,29.97,10.0,WNW,11.5,-,N/A,,Scattered Clouds,300,2013-01-12 18:55:00
1:15 PM,32.0,24.1,73,29.96,10.0,NW,10.4,18.4,N/A,,Overcast,310,2013-01-12 19:15:00
1:35 PM,32.0,24.3,73,29.96,10.0,WNW,13.8,18.4,N/A,,Overcast,300,2013-01-12 19:35:00
1:55 PM,31.5,24.4,75,29.96,10.0,WNW,10.4,-,N/A,,Overcast,300,2013-01-12 19:55:00
2:15 PM,31.1,23.9,75,29.99,10.0,West,11.5,-,N/A,,Overcast,280,2013-01-12 20:15:00
2:35 PM,31.1,24.8,77,30.01,10.0,WNW,11.5,-,N/A,,Overcast,290,2013-01-12 20:35:00
2:55 PM,30.7,23.5,75,30.01,10.0,WNW,11.5,-,N/A,,Overcast,300,2013-01-12 20:55:00
3:15 PM,30.7,23.9,76,30.02,10.0,WNW,10.4,-,N/A,,Overcast,290,2013-01-12 21:15:00
3:35 PM,30.7,23.9,76,30.01,10.0,WNW,11.5,-,N/A,,Overcast,300,2013-01-12 21:35:00
3:55 PM,30.2,24.3,79,30.00,10.0,NW,11.5,-,N/A,,Overcast,310,2013-01-12 21:55:00
4:15 PM,30.0,23.7,77,29.99,10.0,NW,10.4,-,N/A,,Overcast,310,2013-01-12 22:15:00
4:35 PM,29.8,23.5,77,29.97,10.0,NW,11.5,-,N/A,,Overcast,310,2013-01-12 22:35:00
4:55 PM,29.8,23.5,77,29.96,10.0,NNW,9.2,-,N/A,,Overcast,340,2013-01-12 22:55:00
5:15 PM,30.0,23.7,77,29.95,10.0,NW,10.4,-,N/A,,Overcast,320,2013-01-12 23:15:00
5:35 PM,29.7,23.4,77,29.95,10.0,NNW,10.4,-,N/A,,Overcast,330,2013-01-12 23:35:00
5:55 PM,29.3,23.2,78,29.96,10.0,NW,9.2,-,N/A,,Overcast,320,2013-01-12 23:55:00
6:15 PM,29.3,23.0,77,29.98,10.0,NNW,10.4,-,N/A,Snow,Light Snow,330,2013-01-13 00:15:00
6:35 PM,28.9,23.4,80,29.99,10.0,NW,10.4,-,N/A,,Overcast,310,2013-01-13 00:35:00
6:55 PM,28.4,23.0,80,30.01,10.0,WNW,11.5,-,N/A,Snow,Light Snow,300,2013-01-13 00:55:00
7:15 PM,27.1,23.0,84,30.01,2.5,WNW,11.5,-,N/A,Snow,Light Snow,300,2013-01-13 01:15:00
7:35 PM,26.4,23.0,87,30.00,3.0,NW,15.0,-,N/A,Snow,Light Snow,310,2013-01-13 01:35:00
7:55 PM,26.6,22.5,84,29.99,10.0,NW,16.1,23.0,N/A,Snow,Light Snow,310,2013-01-13 01:55:00
8:15 PM,25.7,22.5,88,29.96,3.0,NW,21.9,25.3,N/A,Snow,Light Snow,320,2013-01-13 02:15:00
8:35 PM,25.7,22.3,87,29.95,4.0,NW,17.3,25.3,N/A,Snow,Light Snow,320,2013-01-13 02:35:00
8:55 PM,24.8,22.5,91,29.92,1.5,NNW,19.6,25.3,N/A,Snow,Light Snow,340,2013-01-13 02:55:00
9:15 PM,24.6,22.1,90,29.91,3.0,NNW,18.4,-,N/A,Snow,Light Snow,340,2013-01-13 03:15:00
9:35 PM,24.4,21.7,89,29.94,1.8,NW,13.8,19.6,N/A,Snow,Light Snow,320,2013-01-13 03:35:00
9:55 PM,23.9,22.1,93,29.96,1.0,NW,9.2,-,0.02,Snow,Snow,310,2013-01-13 03:55:00
10:15 PM,23.7,22.1,94,29.97,1.2,NW,11.5,-,N/A,Snow,Snow,310,2013-01-13 04:15:00
10:35 PM,23.0,21.6,94,29.98,1.2,NW,11.5,-,0.01,Snow,Light Snow,310,2013-01-13 04:35:00
10:55 PM,22.8,21.0,93,29.98,1.0,NW,15.0,20.7,0.01,Snow,Light Snow,310,2013-01-13 04:55:00
11:15 PM,22.1,20.3,93,29.97,1.2,NW,12.7,18.4,N/A,Snow,Light Snow,320,2013-01-13 05:15:00
11:35 PM,22.1,20.1,92,29.96,2.5,NW,13.8,17.3,N/A,Snow,Light Snow,320,2013-01-13 05:35:00
11:55 PM,21.7,18.7,88,29.96,2.0,NNW,13.8,19.6,N/A,Snow,Light Snow,330,2013-01-13 05:55:00